Temperature
15 15 16 16 16 17 19 21 22 22 22 21 21 21 20 20 20 17 16 16 15 15 16 16 16 16 16 16 16 16 16 16 16 16 15 15 15 15 15 15 15 15 15 15 15 15 15 15 15
15 15 16 17 16 17 19 20 21 21 20 20 20 20 20 19 18 16 16 15 15 15 15 15 15 15 15 15 15 15 15 15 15 15 15 15 15 15 15 15 15 15 15 15 15 15 15 15 15
15 15 16 17 17 18 20 20 20 20 20 20 20 20 20 18 17 16 15 15 14 14 15 15 15 15 15 15 15 15 15 15 15 15 15 15 15 15 15 15 15 15 15 15 15 15 15 15 15
14 15 16 16 17 19 20 20 20 19 19 19 19 19 18 17 16 15 15 15 14 14 14 14 15 15 15 15 15 15 15 15 15 15 15 15 15 15 15 15 15 15 15 15 15 15 15 15 15
14 16 16 16 18 19 20 20 19 19 19 19 19 18 17 16 15 15 15 14 14 14 14 14 14 15 14 15 15 15 15 15 15 15 15 15 15 15 15 14 14 15 15 15 15 15 15 15 15
15 16 16 16 18 19 19 19 19 19 19 19 18 17 16 15 15 14 14 14 13 13 14 14 14 14 14 14 14 14 14 14 15 14 14 14 14 14 14 14 14 14 14 14 14 14 14 14 14
15 15 16 17 18 19 19 19 19 18 18 18 18 17 15 14 14 14 13 13 13 13 13 13 13 14 14 14 14 14 14 14 14 14 14 14 14 14 14 14 14 14 14 14 14 14 14 14 14
14 15 16 17 17 18 18 18 18 18 17 17 17 16 15 14 13 13 13 13 13 13 13 13 13 13 13 13 13 14 14 14 14 14 14 14 14 14 14 14 14 14 14 14 14 14 14 14 14
14 14 14 16 17 17 17 17 17 16 16 16 16 15 15 14 13 13 12 12 12 12 12 12 12 12 13 13 13 13 13 13 13 13 13 13 13 13 13 13 13 13 13 13 13 13 13 13 13
14 13 15 16 16 16 16 16 16 16 15 15 15 14 14 13 13 12 12 12 12 12 12 12 12 12 12 12 12 12 13 13 13 13 13 13 13 13 13 13 13 13 13 13 13 13 13 13 13
14 14 15 15 15 15 15 15 15 15 14 15 14 14 13 13 12 12 12 12 11 11 11 11 11 12 12 12 12 12 12 12 12 12 12 12 12 12 12 13 13 13 13 13 13 13 13 13 12
14 14 15 15 14 14 14 15 14 14 14 15 14 14 13 12 12 12 11 11 11 11 11 11 11 11 11 11 11 11 12 12 12 12 12 12 12 12 12 12 12 12 12 12 12 12 12 12 12
14 14 14 14 13 13 14 14 14 14 14 14 14 13 13 12 12 11 11 11 11 11 11 11 11 11 11 11 11 11 11 11 12 12 12 12 12 12 12 12 12 12 12 12 12 12 12 12 12
14 14 14 14 14 13 13 13 14 14 14 13 13 13 12 12 12 11 11 11 11 11 10 11 11 11 11 11 11 11 11 11 11 11 11 11 11 11 11 12 12 12 12 12 12 12 12 12 11
13 13 13 14 14 14 13 12 13 14 14 13 13 13 12 12 11 11 11 11 10 10 10 10 10 10 10 10 10 10 10 10 11 11 11 11 11 11 11 11 11 11 11 11 11 11 11 11 11
13 13 12 14 14 13 12 11 14 14 14 13 13 12 12 11 11 11 10 10 10 10 10 10 10 10 10 10 10 10 10 10 10 10 10 11 11 11 11 11 11 11 11 11 11 11 11 11 11
12 12 13 13 14 13 12 11 13 14 14 13 13 12 12 11 11 10 10 10 10 10 10 10 10 10 10 10 10 10 10 10 10 10 10 10 10 10 10 11 11 11 11 11 11 11 10 10 10
12 12 13 13 13 13 12 12 13 14 13 13 13 12 12 11 11 10 10 10 10 9 9 9 9 9 9 9 9 9 9 9 10 10 10 10 10 10 10 10 10 10 10 10 10 10 10 10 10
13 12 12 13 13 13 12 12 13 13 13 13 12 12 11 11 10 10 10 10 9 9 9 9 9 9 9 9 9 9 9 9 9 9 9 10 9 10 10 10 10 10 10 10 10 10 9 9 9
12 12 12 13 13 12 12 12 12 13 12 13 12 12 11 11 10 10 9 9 9 9 9 9 9 9 9 9 9 9 9 9 9 9 9 9 9 9 9 9 9 9 9 9 9 9 9 9 8
12 12 12 12 12 12 11 11 12 13 13 12 12 11 11 11 10 10 9 9 9 8 8 8 9 9 9 8 8 8 8 8 8 8 9 9 9 9 9 9 9 9 9 9 9 9 9 8 8
11 12 12 11 10 10 11 9 11 12 12 12 12 11 11 11 10 10 9 8 8 8 8 8 8 8 8 8 8 8 8 8 8 8 8 8 8 9 9 9 9 9 9 9 9 8 8 8 8
11 12 11 11 10 9 10 9 10 12 11 11 11 11 11 10 10 9 9 8 8 8 8 8 8 8 8 8 8 8 8 8 8 8 8 8 8 8 8 8 8 8 8 8 8 8 8 8 7
11 11 11 10 9 8 10 10 10 11 11 11 11 11 10 10 9 9 9 8 8 8 8 8 8 8 8 8 8 8 7 7 7 7 8 8 8 8 8 8 8 8 8 8 8 7 7 7 7
10 9 8 8 8 8 11 10 10 12 12 11 11 10 10 9 9 9 8 8 8 7 7 7 7 7 7 7 7 7 7 7 7 7 7 7 7 7 7 7 7 7 7 7 7 7 7 7 7
9 9 8 8 9 9 10 9 10 11 11 11 11 10 9 9 9 8 8 8 8 7 7 7 7 7 7 7 7 7 7 7 7 6 7 7 7 7 7 7 7 7 7 7 7 7 7 6 6
9 9 10 9 8 8 9 11 11 11 10 10 10 9 9 8 8 8 7 7 7 7 7 7 7 7 7 6 6 6 6 6 6 6 6 6 6 6 6 6 6 6 6 6 6 6 6 6 6
9 9 8 8 8 8 10 10 9 9 9 9 9 8 8 8 8 7 7 7 7 6 6 6 6 6 6 6 6 6 6 6 6 6 6 6 6 6 6 6 6 6 6 5 5 5 5 5 5
8 8 8 8 8 8 9 9 11 9 9 9 8 9 8 7 7 7 6 6 6 6 6 6 6 6 6 6 6 5 6 5 5 6 6 6 5 5 5 5 5 5 5 5 5 5 5 5 5
8 8 8 7 7 8 8 8 10 10 9 9 9 8 8 7 7 6 6 5 5 5 5 5 5 5 5 5 5 5 5 5 5 5 5 5 5 5 5 5 5 5 5 4 4 4 4 4 4
Wind_Speed
15 12 6 2 3 5 7 5 3 1 1 4 5 4 5 4 4 6 4 7 8 9 11 11 10 9 8 8 7 7 7 7 7 8 8 8 8 8 8 7 7 7 7 8 9 9 9 9 9
12 7 4 3 4 6 6 5 3 1 3 4 3 2 3 3 6 7 5 6 7 8 10 10 10 9 8 8 8 7 7 7 7 7 7 7 7 7 7 8 7 7 8 8 8 8 8 8 8
10 6 3 4 5 6 3 1 4 4 3 1 1 2 2 3 6 4 5 6 6 7 10 10 11 9 8 7 7 7 7 6 6 7 7 7 7 7 7 7 7 8 8 8 8 8 7 7 7
4 3 4 5 9 7 3 1 4 2 1 1 1 0 2 5 4 5 5 5 6 6 9 10 10 9 8 7 7 6 6 6 6 6 7 7 7 7 7 7 7 8 8 8 8 8 7 7 6
3 3 5 6 10 7 2 2 1 2 2 2 1 1 2 5 9 8 5 4 5 6 7 8 9 9 8 7 6 6 6 6 6 6 6 6 6 6 7 6 7 7 8 8 7 7 7 6 6
3 3 5 8 9 5 2 1 2 4 4 1 0 2 1 6 7 5 4 3 4 5 6 7 9 9 8 7 6 6 5 5 5 5 5 6 6 6 7 6 6 7 7 7 7 7 7 6 5
3 4 6 9 6 3 2 1 3 4 3 2 1 1 2 5 5 4 3 2 3 4 5 6 7 8 8 7 6 6 5 5 5 5 5 5 6 6 6 7 6 6 6 6 6 6 6 5 4
3 4 6 7 7 4 1 0 2 3 3 1 1 1 1 4 5 3 2 1 2 3 3 4 5 6 7 6 6 6 6 6 6 5 6 6 6 6 6 7 7 6 6 5 5 5 5 5 4
3 4 6 5 4 1 2 0 1 2 2 2 1 1 2 5 4 2 1 1 1 1 2 4 4 4 5 6 6 6 6 6 6 6 7 7 6 6 6 7 7 5 5 5 5 4 4 4 3
3 4 5 3 4 4 2 2 2 2 4 4 2 1 2 4 3 3 3 3 3 2 2 3 4 3 4 4 5 5 5 6 6 6 6 5 5 6 6 7 6 5 4 5 5 4 5 3 3
4 5 4 3 4 5 5 3 2 4 5 5 3 3 3 3 3 3 4 3 3 3 3 3 3 4 3 3 4 4 4 4 5 6 6 5 5 6 6 5 6 5 4 4 4 4 3 3 2
5 6 6 4 2 4 5 4 4 6 6 2 1 2 2 3 4 4 5 4 3 3 3 3 3 3 3 2 2 3 2 2 3 3 5 4 3 3 4 4 4 4 3 2 2 2 2 2 2
8 7 6 4 4 6 6 7 6 8 6 3 2 3 4 4 4 4 4 4 3 3 3 2 2 3 3 2 1 2 2 2 3 3 2 3 3 2 2 3 3 3 3 2 0 0 1 1 2
4 6 6 5 6 6 7 8 6 7 4 4 4 5 4 4 4 4 3 3 3 3 3 2 2 2 2 1 1 1 2 2 3 3 2 2 2 2 2 3 3 3 3 2 1 1 1 1 2
5 6 7 7 7 4 4 8 8 7 5 5 5 4 4 3 3 3 2 2 2 3 3 3 2 3 3 2 1 1 1 2 2 2 3 3 2 2 2 2 3 3 3 3 2 1 2 2 2
6 6 6 5 6 4 3 7 4 3 5 5 5 4 3 3 3 2 2 2 2 2 3 2 2 2 2 2 1 1 2 2 2 3 3 3 3 3 2 2 2 3 3 3 2 2 2 2 2
6 6 7 4 7 5 6 8 4 3 3 4 4 3 3 3 3 2 3 2 2 3 3 3 2 2 3 2 2 2 2 2 2 3 3 3 3 3 2 1 2 3 3 2 2 2 2 2 2
5 6 7 6 5 5 7 9 6 3 4 5 4 3 3 2 2 2 3 3 3 3 3 3 3 2 3 3 2 2 1 1 2 3 3 3 3 3 3 2 2 3 3 3 2 3 2 2 2
7 7 9 7 2 4 8 10 7 5 5 5 4 3 2 2 2 2 2 4 4 3 3 3 3 3 2 2 2 2 1 1 1 2 3 4 3 3 4 2 2 2 3 4 3 3 3 2 2
10 10 10 6 1 4 8 10 8 6 6 4 4 3 3 3 2 2 2 4 4 3 3 3 3 3 3 2 2 2 2 1 1 2 3 3 3 3 4 3 3 3 3 4 3 3 3 2 2
11 10 8 6 5 6 7 8 7 6 4 5 4 4 3 3 3 3 3 3 3 3 3 3 3 3 3 2 2 2 2 2 1 1 2 2 4 3 3 3 3 3 3 3 3 3 3 4 2
9 5 5 5 5 4 4 5 5 6 5 5 5 4 3 3 3 3 4 3 3 3 3 3 3 3 3 3 3 3 3 2 1 2 2 2 3 3 3 3 3 3 2 3 3 2 2 3 3
5 3 5 6 6 6 6 5 6 5 5 5 5 5 4 3 3 4 4 4 3 3 3 3 3 3 3 3 3 3 2 1 1 2 2 2 2 3 3 3 3 2 2 2 2 2 2 2 3
3 3 5 4 3 6 8 7 5 4 6 5 5 5 4 4 3 4 4 4 3 3 3 4 3 3 3 3 3 4 3 2 2 2 3 2 2 2 2 3 3 2 2 2 2 2 2 2 2
4 3 1 2 4 7 4 5 5 3 4 5 5 5 4 4 3 3 4 3 3 4 4 4 4 3 3 3 3 3 4 3 2 2 3 2 2 2 2 2 2 2 2 2 2 2 2 2 2
7 6 5 4 5 3 2 6 3 5 5 6 6 6 4 3 3 3 3 3 3 3 4 4 4 3 3 3 3 3 3 3 2 2 2 2 2 2 2 2 2 3 3 2 2 2 2 2 2
5 6 4 2 3 3 5 4 2 5 6 6 5 5 3 3 3 3 2 2 2 3 3 4 4 3 3 3 2 2 2 2 2 2 2 2 2 2 2 2 2 2 2 2 2 2 2 2 2
4 3 3 4 4 4 6 5 4 6 5 5 4 4 3 2 2 2 2 2 2 2 3 3 4 4 3 3 3 2 2 2 2 2 2 2 2 2 2 2 3 2 2 2 2 2 2 2 2
5 5 5 4 4 3 3 3 1 7 7 5 4 4 4 3 2 2 2 2 2 3 3 3 3 3 3 3 2 2 2 2 2 2 2 2 2 2 2 2 2 2 2 2 2 2 2 2 2
5 6 5 4 5 4 3 3 2 6 6 5 4 4 4 3 3 3 2 2 2 3 3 3 3 3 3 3 2 2 2 3 2 2 2 2 2 2 2 2 2 2 2 2 2 2 2 3 3
Wind_Direction
306 286 269 257 246 235 241 242 254 71 11 28 22 3 343 9 29 103 120 78 82 104 112 113 106 102 98 98 101 109 110 109 110 110 108 108 108 105 104 103 103 102 102 102 98 96 94 90 87
301 296 269 239 242 239 236 224 192 92 58 46 29 344 326 58 71 95 86 77 82 95 109 111 109 105 100 96 97 106 112 114 114 113 111 109 110 109 106 102 100 102 101 101 100 98 95 93 89
282 275 260 237 237 247 262 57 90 74 74 59 26 349 352 55 77 88 79 81 80 86 105 112 110 107 103 98 97 104 107 112 116 117 116 113 111 109 109 106 103 101 100 100 100 98 96 94 94
284 245 245 249 249 255 278 55 85 98 164 215 285 106 70 48 65 82 82 85 88 89 100 114 114 112 109 104 101 105 109 110 115 121 118 114 109 108 108 106 104 104 102 101 99 98 96 94 96
251 257 237 238 247 253 288 65 82 234 221 190 251 257 93 75 75 80 82 80 92 91 99 119 121 120 118 113 106 106 116 116 117 125 123 121 115 109 108 108 107 108 107 105 102 101 98 93 92
254 246 244 241 242 232 178 130 233 251 240 205 207 282 112 95 83 82 77 73 90 101 104 122 129 128 127 124 115 110 119 122 119 126 131 128 122 114 109 105 111 114 114 113 110 104 100 96 91
266 255 252 264 266 238 194 137 235 255 254 224 167 278 135 96 85 84 77 80 87 100 109 124 136 134 130 130 128 123 124 128 130 128 132 136 133 126 120 109 103 113 115 117 114 110 106 103 99
292 289 265 262 262 254 134 129 289 282 283 353 60 222 156 106 93 96 88 90 89 98 119 132 138 139 134 131 134 130 130 131 134 133 133 137 135 129 124 113 102 106 118 120 120 119 119 119 119
271 253 254 271 281 309 101 236 300 327 302 301 306 318 87 108 103 109 132 130 134 121 135 139 134 135 139 143 137 134 135 139 142 147 149 153 152 137 123 116 104 102 124 136 140 143 145 141 155
222 240 253 310 335 325 316 272 286 262 246 246 241 134 145 142 147 170 207 206 190 191 167 148 140 129 131 139 140 147 149 156 161 161 165 177 145 129 129 133 124 116 141 156 169 176 167 165 175
221 240 275 302 323 316 299 280 261 260 249 233 225 190 168 160 184 205 212 217 207 187 169 147 145 142 139 134 151 150 150 160 161 169 170 149 132 135 140 142 146 147 163 171 179 189 192 177 158
237 249 263 280 310 288 275 271 265 244 258 275 231 169 187 209 216 220 216 211 203 180 166 151 147 147 139 132 145 141 136 149 146 162 163 153 146 149 144 141 152 150 147 154 183 201 186 161 138
232 249 254 259 253 255 261 257 256 256 255 276 243 201 206 217 225 226 221 203 199 179 165 150 156 155 141 136 157 134 144 151 141 139 159 157 148 162 140 131 131 127 125 140 193 91 134 101 98
260 265 262 247 240 240 252 260 246 250 216 213 219 224 212 216 220 222 222 213 195 173 157 150 171 157 140 139 147 135 138 136 127 131 142 148 142 135 146 142 136 127 127 145 155 106 92 78 78
261 261 260 233 224 225 259 259 232 234 200 219 224 220 215 216 221 214 210 213 193 167 148 154 178 154 149 146 150 106 113 128 132 134 132 113 114 118 135 152 150 134 132 137 123 93 79 77 73
236 239 244 212 198 181 209 259 243 196 190 212 224 223 214 215 206 194 185 191 180 155 140 151 182 154 158 143 133 113 108 122 137 136 132 129 126 126 128 157 160 138 128 118 141 136 110 94 83
220 235 243 223 181 180 209 258 259 194 206 223 221 217 205 218 201 189 175 168 162 152 147 149 151 156 160 141 130 120 120 125 130 132 130 137 140 141 125 154 146 127 119 118 137 122 129 123 98
228 237 252 249 189 200 228 250 260 224 224 229 210 202 190 213 208 181 163 153 139 143 145 147 148 148 144 134 123 108 110 125 131 133 137 138 139 147 132 139 152 130 131 126 127 132 126 137 132
261 264 269 269 237 238 247 255 256 240 227 228 204 189 197 205 191 153 146 138 125 124 137 142 138 139 132 138 143 141 158 174 159 150 145 139 143 153 143 148 154 148 147 149 141 140 136 133 115
254 255 261 272 259 265 264 264 252 235 220 211 190 190 200 198 187 154 137 128 138 146 149 142 146 144 139 158 164 160 150 156 163 150 141 141 148 150 151 151 156 154 152 147 143 149 142 159 142
248 246 256 275 296 261 271 272 234 214 201 182 176 183 199 198 178 159 142 135 141 141 143 151 148 144 141 146 135 126 96 86 105 128 161 153 149 148 142 144 145 150 152 155 159 161 155 174 189
252 255 263 269 276 260 227 278 237 205 195 187 178 175 183 189 166 153 152 157 156 145 141 153 148 144 141 141 143 145 141 150 175 158 154 152 142 144 152 148 143 147 150 158 168 160 162 165 182
249 285 267 255 256 268 236 243 264 186 196 195 176 166 170 165 156 154 155 160 147 140 150 156 146 143 141 143 145 139 121 118 111 119 123 134 136 137 142 137 128 136 152 165 155 149 167 169 179
247 263 265 251 244 257 227 213 262 197 191 175 165 161 162 156 147 140 135 136 138 144 153 154 148 144 141 145 143 139 132 120 113 128 143 142 140 139 137 138 137 147 153 166 167 165 175 181 179
214 194 233 241 225 243 207 208 244 176 145 150 146 141 137 140 132 127 128 137 147 150 149 152 150 151 150 154 153 153 142 137 140 143 152 154 152 148 162 147 149 150 147 152 152 151 173 182 176
209 204 190 215 230 250 218 222 228 117 103 111 115 112 107 105 111 118 127 138 145 146 148 147 146 144 143 152 152 151 143 142 145 140 142 149 155 157 156 144 148 146 142 149 145 149 177 179 178
199 219 232 253 282 266 239 212 169 112 112 115 115 110 114 106 106 120 122 130 138 145 149 148 148 142 142 142 132 128 134 133 134 137 132 132 137 133 139 141 153 141 139 153 156 163 183 187 191
234 219 179 201 219 242 240 222 201 161 160 145 129 123 116 106 106 108 123 130 135 140 135 140 145 152 149 147 143 135 132 133 130 126 131 128 122 127 143 149 151 145 154 167 169 175 188 188 201
196 215 214 218 231 218 242 251 112 150 149 142 131 126 121 117 126 116 103 109 122 123 122 126 130 131 135 133 126 124 131 126 126 128 130 128 124 139 150 160 158 162 171 176 178 188 196 203 212
221 215 199 199 233 228 243 264 27 104 113 116 113 112 116 110 104 101 98 102 107 119 130 135 135 135 141 140 135 133 126 117 116 117 121 124 137 145 147 154 161 173 176 184 186 201 214 211 213
Height
1504 1505 1506 1509 1510 1510 1503 1493 1487 1489 1491 1494 1495 1496 1498 1500 1503 1513 1513 1511 1511 1511 1512 1514 1515 1516 1518 1519 1521 1522 1523 1524 1525 1527 1528 1529 1530 1530 1531 1532 1533 1534 1534 1535 1536 1537 1537 1538 1539
1503 1505 1508 1508 1509 1510 1499 1490 1489 1491 1494 1496 1497 1498 1499 1501 1505 1508 1509 1510 1510 1511 1511 1513 1514 1516 1517 1519 1520 1521 1523 1524 1525 1526 1527 1528 1529 1530 1531 1532 1533 1534 1534 1535 1536 1537 1537 1538 1539
1504 1506 1508 1505 1504 1502 1495 1489 1490 1492 1495 1497 1498 1500 1501 1504 1505 1507 1508 1509 1510 1510 1511 1512 1514 1515 1517 1518 1519 1520 1522 1523 1524 1525 1527 1528 1529 1530 1531 1532 1533 1533 1534 1535 1536 1536 1537 1538 1538
1505 1507 1507 1506 1501 1493 1490 1490 1491 1494 1496 1498 1499 1500 1502 1505 1505 1506 1507 1508 1509 1509 1511 1511 1513 1514 1516 1517 1518 1519 1521 1522 1523 1525 1526 1527 1528 1529 1530 1531 1532 1533 1534 1535 1535 1536 1537 1537 1538
1506 1506 1505 1503 1497 1490 1488 1490 1492 1494 1496 1498 1499 1500 1503 1505 1504 1505 1506 1507 1508 1509 1510 1511 1512 1513 1515 1516 1517 1518 1519 1521 1522 1523 1524 1526 1527 1528 1529 1530 1531 1532 1533 1534 1535 1536 1536 1537 1538
1506 1504 1505 1502 1493 1488 1489 1491 1493 1494 1496 1497 1499 1500 1503 1504 1503 1504 1505 1507 1508 1508 1508 1510 1511 1512 1514 1515 1516 1517 1518 1519 1521 1522 1523 1525 1526 1527 1528 1529 1530 1531 1532 1533 1534 1535 1536 1537 1538
1506 1503 1501 1495 1491 1489 1489 1491 1493 1494 1495 1497 1498 1500 1502 1503 1502 1503 1504 1506 1507 1507 1507 1509 1510 1511 1512 1513 1514 1516 1517 1518 1519 1521 1522 1523 1525 1526 1527 1528 1529 1530 1531 1533 1534 1535 1535 1536 1538
1503 1503 1498 1494 1492 1490 1490 1492 1493 1494 1495 1497 1498 1499 1501 1502 1501 1502 1503 1505 1505 1506 1506 1507 1508 1509 1510 1511 1513 1514 1515 1517 1518 1519 1520 1522 1523 1524 1526 1527 1528 1529 1530 1532 1533 1534 1535 1536 1537
1503 1505 1501 1494 1491 1490 1490 1492 1494 1494 1495 1496 1497 1498 1499 1499 1500 1500 1502 1503 1504 1504 1505 1505 1506 1507 1508 1509 1511 1512 1513 1515 1516 1517 1519 1520 1522 1523 1524 1526 1527 1528 1529 1530 1532 1533 1534 1535 1536
1502 1503 1497 1493 1491 1491 1491 1492 1494 1494 1494 1495 1496 1496 1497 1498 1498 1499 1500 1501 1502 1502 1503 1504 1504 1505 1506 1508 1509 1510 1511 1513 1514 1515 1517 1518 1520 1521 1523 1524 1525 1526 1528 1529 1530 1532 1533 1534 1535
1498 1497 1493 1492 1493 1493 1492 1492 1493 1493 1493 1493 1494 1494 1495 1496 1497 1497 1498 1499 1500 1500 1501 1502 1502 1503 1504 1505 1506 1508 1509 1510 1512 1513 1515 1517 1518 1519 1521 1522 1523 1525 1526 1527 1529 1530 1532 1533 1534
1495 1493 1493 1492 1493 1493 1493 1492 1492 1492 1491 1491 1492 1492 1493 1494 1494 1495 1496 1497 1497 1498 1499 1500 1500 1501 1502 1503 1504 1506 1507 1508 1509 1511 1513 1514 1516 1517 1518 1520 1521 1523 1524 1526 1527 1529 1530 1532 1533
1492 1492 1491 1491 1492 1492 1492 1491 1491 1489 1489 1489 1490 1491 1491 1492 1493 1493 1494 1494 1495 1495 1496 1497 1498 1499 1500 1501 1502 1503 1505 1506 1507 1509 1510 1512 1513 1515 1516 1517 1519 1521 1522 1524 1525 1527 1528 1530 1531
1490 1490 1489 1489 1489 1489 1490 1488 1488 1484 1486 1487 1487 1488 1489 1489 1490 1491 1491 1491 1492 1493 1493 1494 1496 1497 1498 1498 1500 1501 1502 1503 1505 1506 1508 1510 1511 1512 1514 1515 1517 1519 1520 1522 1523 1525 1526 1528 1529
1490 1490 1487 1486 1486 1487 1488 1486 1483 1482 1483 1484 1485 1485 1486 1486 1487 1487 1488 1488 1489 1490 1491 1492 1493 1494 1495 1496 1497 1498 1499 1501 1502 1503 1505 1507 1509 1510 1512 1513 1514 1516 1518 1520 1521 1523 1525 1526 1527
1488 1489 1488 1481 1482 1484 1490 1487 1479 1479 1480 1481 1482 1482 1483 1484 1484 1485 1485 1486 1486 1487 1488 1489 1490 1491 1492 1493 1494 1495 1497 1498 1499 1501 1502 1504 1506 1508 1509 1511 1512 1513 1515 1517 1519 1521 1522 1524 1525
1487 1488 1483 1480 1478 1481 1485 1483 1477 1476 1477 1478 1479 1479 1480 1481 1482 1482 1483 1483 1484 1484 1485 1486 1487 1488 1489 1490 1492 1493 1494 1495 1496 1498 1500 1502 1504 1505 1507 1508 1509 1511 1512 1514 1516 1518 1520 1521 1523
1485 1483 1479 1478 1476 1478 1481 1478 1475 1474 1474 1475 1475 1476 1477 1478 1479 1480 1480 1480 1481 1482 1483 1483 1485 1486 1486 1487 1489 1490 1491 1492 1493 1495 1497 1499 1501 1503 1504 1505 1507 1508 1509 1511 1513 1516 1517 1519 1520
1479 1479 1479 1475 1473 1476 1477 1474 1472 1470 1471 1471 1472 1474 1475 1476 1476 1477 1478 1478 1479 1479 1480 1481 1482 1483 1484 1484 1485 1486 1488 1489 1490 1493 1495 1497 1498 1500 1501 1503 1505 1505 1507 1509 1511 1513 1515 1516 1518
1478 1479 1478 1473 1473 1475 1474 1471 1467 1466 1467 1467 1468 1470 1472 1473 1473 1474 1475 1475 1476 1477 1477 1478 1479 1480 1481 1482 1484 1485 1486 1487 1488 1490 1492 1494 1496 1497 1499 1500 1502 1503 1504 1506 1508 1510 1512 1514 1515
1475 1476 1476 1476 1474 1472 1473 1470 1464 1461 1462 1463 1465 1467 1468 1470 1471 1472 1472 1473 1473 1474 1475 1476 1477 1479 1480 1481 1481 1482 1483 1484 1486 1488 1490 1492 1493 1495 1497 1498 1500 1501 1502 1503 1505 1506 1508 1510 1513
1474 1470 1472 1474 1479 1479 1473 1480 1462 1459 1460 1460 1462 1464 1466 1468 1469 1469 1470 1471 1471 1472 1473 1474 1476 1477 1478 1478 1479 1480 1480 1482 1484 1485 1487 1489 1491 1493 1494 1496 1497 1499 1500 1502 1503 1505 1507 1508 1510
1471 1470 1471 1473 1476 1479 1472 1477 1464 1456 1458 1458 1459 1461 1463 1465 1466 1467 1468 1469 1470 1470 1471 1473 1474 1475 1476 1476 1478 1478 1479 1480 1482 1483 1485 1487 1488 1490 1492 1493 1495 1496 1498 1499 1500 1502 1504 1506 1507
1470 1471 1470 1471 1477 1483 1469 1471 1463 1456 1453 1454 1456 1458 1461 1463 1464 1465 1467 1467 1468 1469 1470 1470 1471 1472 1474 1475 1476 1477 1477 1479 1480 1480 1482 1484 1486 1488 1489 1491 1492 1494 1496 1497 1498 1500 1501 1503 1504
1470 1476 1483 1483 1483 1476 1458 1463 1459 1448 1447 1450 1453 1456 1458 1460 1462 1463 1464 1465 1466 1467 1467 1468 1469 1470 1472 1473 1474 1475 1476 1477 1478 1479 1481 1482 1484 1485 1487 1488 1490 1491 1493 1494 1496 1497 1499 1500 1501
1468 1470 1479 1482 1475 1467 1458 1462 1453 1445 1446 1449 1452 1455 1457 1459 1460 1461 1462 1463 1464 1465 1465 1466 1467 1468 1470 1471 1472 1474 1474 1475 1476 1478 1479 1480 1481 1483 1484 1485 1487 1488 1490 1491 1492 1494 1495 1497 1498
1465 1467 1464 1471 1470 1471 1462 1451 1449 1446 1448 1450 1452 1455 1456 1458 1459 1460 1461 1461 1462 1463 1463 1464 1465 1466 1468 1469 1470 1472 1473 1474 1475 1476 1477 1478 1479 1481 1482 1483 1484 1485 1487 1488 1489 1490 1491 1493 1494
1461 1461 1468 1472 1472 1468 1455 1451 1453 1450 1450 1450 1452 1454 1456 1457 1458 1459 1460 1460 1460 1461 1461 1462 1463 1464 1466 1467 1468 1470 1471 1472 1473 1474 1475 1476 1477 1478 1479 1480 1481 1482 1483 1485 1486 1487 1488 1489 1490
1462 1463 1462 1464 1463 1465 1462 1456 1441 1443 1446 1449 1451 1453 1455 1456 1457 1458 1459 1459 1459 1460 1460 1461 1461 1463 1464 1465 1466 1467 1468 1470 1471 1472 1473 1474 1475 1476 1476 1477 1478 1479 1480 1482 1483 1483 1485 1485 1485
1455 1456 1460 1467 1464 1460 1462 1459 1441 1441 1444 1447 1450 1452 1454 1455 1456 1457 1458 1458 1458 1458 1459 1459 1460 1461 1462 1463 1464 1465 1466 1467 1469 1470 1471 1472 1473 1473 1474 1475 1476 1476 1477 1478 1479 1480 1481 1481 1482